Terminal Aerodrome Forecast
Issued by NWS Twin Cities, MN

Home | Current Version | Previous Version | Text Only | Print | Product List | Glossary Off
Versions: 1 2 3 4 5 6 7 8 9 10 11 12 13 14 15 16 17 18 19 20 21

000
FTUS43 KMPX 241700
TAFMSP
TAF
KMSP 241729Z 2418/2524 32008KT P6SM OVC015
     FM250000 29006KT P6SM OVC012
     FM250600 21006KT P6SM BKN020 OVC080
     FM250900 19006KT P6SM SCT020 OVC040
     FM251800 16005KT 5SM BR OVC012=

USA.gov is the U.S. government's official web portal to all federal, state and local government web resources and services.